OE1TRI-13 Weather Reports


time (UTC)temp
F
wind
direction
speed
knots
gust
knots
rain 1hr
in
rain 24hr
in
rain mn
in
humidity
%
barometer
mb
20260505205004 51 180 0.0 0.9 0.00 0.00 0.00 70 1025.1
20260505204004 51 180 0.0 0.0 0.00 0.00 0.00 67 1025.1
20260505203005 53 180 0.0 0.9 0.00 0.00 0.00 66 1025.1
20260505201005 55 180 0.0 1.7 0.00 0.00 0.00 60 1025.1
20260505195005 54 203 0.9 0.9 0.00 0.00 0.00 63 1025.0
20260505194005 55 248 1.7 1.7 0.00 0.00 0.00 65 1024.0
20260505191005 58 180 1.7 2.6 0.00 0.00 0.00 58 1024.0
20260505190005 58 180 0.9 4.3 0.00 0.00 0.00 55 1024.0
20260505184005 57 180 0.9 1.7 0.00 0.00 0.00 64 1023.0
20260505183005 58 180 0.9 1.7 0.00 0.00 0.00 63 1023.0
20260505182004 59 180 0.9 1.7 0.00 0.00 0.00 61 1023.0
20260505181005 62 202 0.0 0.9 0.00 0.00 0.00 58 1023.0
20260505180005 66 202 0.9 0.9 0.00 0.00 0.00 51 1023.0
20260505175004 67 202 0.9 0.9 0.00 0.00 0.00 46 1023.0
20260505174004 68 292 0.9 0.9 0.00 0.00 0.00 46 1023.0
20260505171004 68 135 0.9 0.9 0.00 0.00 0.00 43 1023.0
20260505170005 73 225 0.0 0.9 0.00 0.00 0.00 44 1023.0
20260505165005 74 225 0.9 0.9 0.00 0.00 0.00 36 1023.0
20260505163005 76 225 4.3 5.2 0.00 0.00 0.00 36 1023.0
20260505162004 75 202 5.2 5.2 0.00 0.00 0.00 35 1023.0
20260505153005 64 292 0.9 2.6 0.00 0.00 0.00 53 1024.0
20260505152005 64 292 0.9 0.9 0.00 0.00 0.00 58 1024.0
20260505124005 71 180 6.1 10.4 0.00 0.00 0.00 34 1023.0
20260505123005 71 112 4.3 11.3 0.00 0.00 0.00 34 1023.0
20260505122005 72 135 8.7 11.3 0.00 0.00 0.00 34 1023.0
20260505121004 72 112 5.2 6.1 0.00 0.00 0.00 32 1023.0
20260505120005 72 202 5.2 8.7 0.00 0.00 0.00 33 1023.0
20260505115005 72 158 6.1 11.3 0.00 0.00 0.00 33 1023.0
20260505114005 73 158 8.7 12.2 0.00 0.00 0.00 32 1023.0
20260505113005 75 90 11.3 12.2 0.00 0.00 0.00 30 1023.0
20260505112005 76 135 7.0 7.0 0.00 0.00 0.00 28 1023.0
20260505111005 78 180 4.3 14.8 0.00 0.00 0.00 27 1023.0
20260505102005 77 158 5.2 6.1 0.00 0.00 0.00 25 1024.0
20260505101005 76 180 2.6 7.0 0.00 0.00 0.00 25 1024.0
20260505100005 74 90 6.1 7.0 0.00 0.00 0.00 27 1024.0
20260505095005 74 45 5.2 5.2 0.00 0.00 0.00 28 1024.0
20260505094004 74 45 4.3 5.2 0.00 0.00 0.00 27 1024.0
20260505093005 73 68 4.3 4.3 0.00 0.00 0.00 29 1025.1
20260505092005 71 68 0.9 5.2 0.00 0.00 0.00 31 1025.1
20260505091005 70 45 4.3 5.2 0.00 0.00 0.00 33 1025.1
20260505090005 69 22 5.2 5.2 0.00 0.00 0.00 34 1025.1
20260505085004 68 45 4.3 6.1 0.00 0.00 0.00 35 1025.1
20260505084005 67 22 6.1 6.1 0.00 0.00 0.00 36 1025.1
20260505083005 65 45 1.7 5.2 0.00 0.00 0.00 40 1025.1
20260505082005 65 22 5.2 5.2 0.00 0.00 0.00 43 1025.1
20260505081005 67 315 2.6 2.6 0.00 0.00 0.00 41 1025.1
20260505080005 69 292 0.9 5.2 0.00 0.00 0.00 41 1025.1
20260505075004 69 45 5.2 5.2 0.00 0.00 0.00 38 1025.1
20260505074005 63 45 0.0 2.6 0.00 0.00 0.00 44 1026.1
20260505073005 60 45 1.7 2.6 0.00 0.00 0.00 48 1026.1
20260505072004 59 45 2.6 2.6 0.00 0.00 0.00 50 1026.1
20260505071004 60 22 0.9 4.3 0.00 0.00 0.00 52 1026.1
20260505070005 62 22 4.3 4.3 0.00 0.00 0.00 48 1026.1
20260505065004 61 59 1.7 4.3 0.00 0.00 0.00 47 1026.1
20260505064005 60 58 0.9 1.7 0.00 0.00 0.00 49 1026.1
20260505062005 59 69 0.9 0.9 0.00 0.00 0.00 50 1026.1
20260505061005 57 135 0.9 0.9 0.00 0.00 0.00 57 1026.1
20260505060005 55 135 0.9 0.9 0.00 0.00 0.00 57 1026.1
20260505052005 47 135 0.0 0.0 0.00 0.00 0.00 73 1027.1
20260505051005 45 135 0.0 0.0 0.00 0.00 0.00 76 1027.1
20260505040005 43 225 0.0 0.0 0.00 0.00 0.00 80 1027.1
20260505035005 44 225 0.0 0.0 0.00 0.00 0.00 79 1027.1
20260505034005 44 225 0.0 0.0 0.00 0.00 0.00 79 1027.1
20260505033004 44 225 0.0 0.0 0.00 0.00 0.00 78 1027.1
20260505032005 45 225 0.0 0.9 0.00 0.00 0.00 77 1027.1
20260505031004 45 225 0.9 0.9 0.00 0.00 0.00 76 1027.1
20260505030005 45 248 0.0 0.9 0.00 0.00 0.00 75 1027.1
20260505025005 46 135 0.0 1.7 0.00 0.00 0.00 75 1027.1
20260505023005 46 158 0.0 0.9 0.00 0.00 0.00 74 1027.1
20260505022005 46 158 0.0 0.9 0.00 0.00 0.00 74 1027.1
20260505020005 46 158 0.0 0.0 0.00 0.00 0.00 73 1027.1
20260505014005 47 158 0.0 0.0 0.00 0.00 0.00 72 1027.8
20260505013004 48 158 0.0 0.9 0.00 0.00 0.00 71 1027.8
20260505012005 48 158 0.9 0.9 0.00 0.00 0.00 71 1027.8
20260505011005 48 158 0.0 0.0 0.00 0.00 0.00 69 1027.8
20260505010005 49 158 0.0 0.0 0.00 0.00 0.00 67 1027.8
20260505005005 49 158 0.0 0.0 0.00 0.00 0.00 67 1027.8
20260505004005 50 158 0.0 0.0 0.00 0.00 0.00 66 1027.8
20260505003005 50 158 0.0 0.9 0.00 0.00 0.00 64 1027.8
20260505002005 51 158 0.9 0.9 0.00 0.00 0.00 63 1027.8
20260505001005 51 158 0.0 0.0 0.00 0.00 0.00 62 1027.8
20260505000005 52 158 0.0 0.0 0.00 0.00 0.00 60 1027.8
20260504235005 52 158 0.0 0.0 0.00 0.00 0.00 59 1027.8
20260504234005 53 158 0.0 0.0 0.00 0.00 0.00 59 1027.8
20260504233005 54 158 0.0 0.0 0.00 0.00 0.00 56 1027.8
20260504232005 54 158 0.0 0.9 0.00 0.00 0.00 55 1027.8
20260504231005 55 158 0.9 4.3 0.00 0.00 0.00 54 1027.8
20260504230005 55 180 1.7 4.3 0.00 0.00 0.00 53 1027.8
20260504224004 56 180 1.7 4.3 0.00 0.00 0.00 51 1028.8
20260504223005 56 180 0.9 1.7 0.00 0.00 0.00 51 1028.8
20260504222005 57 180 1.7 1.7 0.00 0.00 0.00 51 1028.8
20260504221005 57 180 0.9 2.6 0.00 0.00 0.00 50 1028.8
20260504220004 57 180 1.7 4.3 0.00 0.00 0.00 49 1027.8
20260504215005 57 180 1.7 4.3 0.00 0.00 0.00 49 1027.8
20260504214005 58 158 4.3 4.3 0.00 0.00 0.00 49 1027.8
20260504213004 58 158 0.9 0.9 0.00 0.00 0.00 50 1028.8
20260504212005 58 180 0.9 2.6 0.00 0.00 0.00 49 1028.8
20260504211005 58 202 0.9 0.9 0.00 0.00 0.00 49 1028.8